Location: Unspecified
(0.0000°N, 0.0000°E)
Time: 15:23:00
(UTC+01:00)

Amateur Radio Satellites - All Passes

Search period start: 07 December 2016 14:53
Search period end: 08 December 2016 14:53
Location: Unspecified, 0.0000°N, 0.0000°E

Satellite Date Start Highest point End Downlink Frequencies (MHz)
Time Altitude Azimuth
AUBIESAT-1 07 Dec 14:59:49 15:03:49 43° 105° (ESE) 15:07:33 437.475
ITUPSAT 1 07 Dec 15:09:57 15:14:38 62° 103° (ESE) 15:19:21 437.325
BEESAT 3 07 Dec 15:10:25 15:12:02 12° 68° (ENE) 15:13:37 437.485
M-CUBED/EXP-1 PRIME 07 Dec 15:12:55 15:17:15 86° 285° (WNW) 15:21:17 437.505
Oscar 19 07 Dec 15:17:39 15:20:05 13° 257° (WSW) 15:22:32 437.125/150
Gurwin Techsat 1B 07 Dec 15:21:53 15:26:26 29° 257° (WSW) 15:30:59 435.225
MOZHAYETS 4 07 Dec 15:37:12 15:40:45 23° 102° (ESE) 15:44:19
AO-7 07 Dec 15:41:12 15:48:56 44° 74° (ENE) 15:56:39 29.400- 29.500
BEESAT 2 07 Dec 15:42:16 15:43:56 12° 68° (ENE) 15:45:36 435.950
ITAMSAT 1 07 Dec 15:46:03 15:51:18 85° 78° (ENE) 15:56:32 435.822/435.867
O/OREOS (USA 219) 07 Dec 15:55:10 15:59:40 54° 284° (WNW) 16:04:08 437.305
KKS-1 07 Dec 15:59:17 16:01:33 14° 103° (ESE) 16:03:50 437.445
SWISSCUBE 07 Dec 16:17:06 16:19:46 15° 282° (WNW) 16:22:26 437.505
BEESAT 07 Dec 16:20:55 16:23:40 15° 283° (WNW) 16:26:25 436.000
SRMSAT 07 Dec 16:34:40 16:34:52 10° 4° (N) 16:35:05 437.500
JUGNU 07 Dec 16:39:32 16:44:12 24° 17° (NNE) 16:48:51 437.505
BEESAT 3 07 Dec 16:46:17 16:49:23 22° 248° (WSW) 16:52:29 437.485
MOZHAYETS 4 07 Dec 17:14:46 17:17:39 17° 282° (WNW) 17:20:33
BEESAT 2 07 Dec 17:18:18 17:21:28 23° 248° (WSW) 17:24:37 435.950
CUBESAT XI-V 07 Dec 17:19:36 17:24:05 47° 102° (ESE) 17:28:36 437.345
HORYU 2 07 Dec 17:24:43 17:28:22 24° 78° (ENE) 17:32:00 437.375
BRITE-PL 07 Dec 17:27:03 17:30:47 32° 78° (ENE) 17:34:33 437.365/2234.400
KKS-1 07 Dec 17:34:11 17:37:50 25° 282° (WNW) 17:41:30 437.445
AO-7 07 Dec 17:35:00 17:41:19 25° 253° (WSW) 17:47:41 29.400- 29.500
STARS 07 Dec 17:35:36 17:39:56 65° 282° (WNW) 17:44:16 437.465
NOAA 15 07 Dec 17:50:54 17:53:23 13° 77° (ENE) 17:55:51 137.62
Cubesat XI-IV 07 Dec 17:58:31 18:01:29 15° 77° (ENE) 18:04:27 437.490
SO-50 07 Dec 17:58:52 17:59:11 10° 113° (ESE) 17:59:32 436.795
AIST 2 07 Dec 18:20:37 18:23:22 17° 68° (ENE) 18:26:08 435.215
SRMSAT 07 Dec 18:21:16 18:25:00 17° 14° (NNE) 18:28:44 437.500
YUBILEINY 07 Dec 18:23:34 18:29:50 22° 93° (E) 18:36:01 435.215
Cosmos 2491 07 Dec 18:23:41 18:30:32 26° 87° (E) 18:37:23 435.465 / 435.565
RS-15 07 Dec 18:26:50 18:38:40 64° 69° (ENE) 18:49:53 29.354- 29.394
JUGNU 07 Dec 18:27:36 18:33:26 60° 21° (NNE) 18:39:14 437.505
GOMX 1 07 Dec 18:32:56 18:37:10 89° 258° (WSW) 18:41:37 467.674
DOVE 4 07 Dec 18:36:15 18:40:09 30° 77° (ENE) 18:44:13 437.250
HORYU 2 07 Dec 19:02:06 19:04:38 15° 257° (WSW) 19:07:09 437.375
LilacSat-2 07 Dec 19:05:47 19:09:34 52° 259° (WSW) 19:13:20 437.200
CUTE-I 07 Dec 19:09:29 19:14:51 72° 257° (WSW) 19:20:12 437.470
NOAA 15 07 Dec 19:28:05 19:32:53 37° 257° (WSW) 19:37:41 137.62
CUTE 1.7 + AOD 2 07 Dec 19:28:41 19:30:07 11° 79° (ENE) 19:31:32 437.475
NOAA 18 07 Dec 19:30:55 19:36:25 75° 257° (WSW) 19:41:56 137.9125
SO-50 07 Dec 19:34:54 19:39:27 42° 292° (WNW) 19:43:58 436.795
Cubesat XI-IV 07 Dec 19:36:24 19:41:16 35° 257° (WSW) 19:46:08 437.490
CINEMA 3 07 Dec 19:43:19 19:47:46 43° 78° (ENE) 19:52:22 145.822/145.860
CANX-2 07 Dec 19:44:53 19:48:25 26° 79° (ENE) 19:51:55 2200.000
STRAND 1 07 Dec 19:54:13 19:59:16 72° 103° (ESE) 20:04:21 437.568
AIST 2 07 Dec 19:58:38 20:01:36 19° 248° (WSW) 20:04:32 435.215
PHONESAT 2.4 07 Dec 20:06:41 20:08:27 16° 138° (SE) 20:10:14 2401.200-2431.200
SEEDS 07 Dec 20:07:09 20:10:40 26° 79° (E) 20:14:09 437.485
SRMSAT 07 Dec 20:09:07 20:14:35 39° 20° (NNE) 20:20:05 437.500
HO-68 07 Dec 20:14:56 20:22:01 66° 76° (ENE) 20:29:05 435.675
COMPASS 1 07 Dec 20:15:08 20:18:11 20° 79° (ENE) 20:21:12 437.405
DOVE 4 07 Dec 20:16:03 20:17:38 12° 260° (W) 20:19:16 437.250
JUGNU 07 Dec 20:16:49 20:22:28 49° 201° (SSW) 20:28:07 437.505
YUBILEINY 07 Dec 20:18:04 20:26:13 46° 273° (W) 20:34:23 435.215
Cosmos 2491 07 Dec 20:19:04 20:26:57 39° 267° (W) 20:34:56 435.465 / 435.565
Cosmos 2504 07 Dec 20:27:52 20:35:39 88° 272° (W) 20:44:02 435.465 / 435.565
AIST 1 07 Dec 20:30:03 20:34:05 42° 274° (W) 20:38:09
UWE-3 07 Dec 20:31:45 20:35:03 19° 78° (ENE) 20:38:20 435.000/436.395/437.385
RS-15 07 Dec 20:42:28 20:50:36 22° 249° (WSW) 20:58:34 29.354- 29.394
CUSAT 1 07 Dec 20:47:21 20:51:53 25° 90° (E) 20:57:17 437.405
CUTE 1.7 + AOD 2 07 Dec 21:02:07 21:05:41 26° 258° (WSW) 21:09:14 437.475
PRISM 07 Dec 21:07:57 21:10:56 19° 102° (ESE) 21:13:56 437.425
ZACube-1 07 Dec 21:08:34 21:12:40 32° 79° (ENE) 21:16:44 437.345
FUNcube-1 07 Dec 21:15:15 21:19:27 36° 78° (ENE) 21:23:37 145.935
AAUSAT CUBESAT 2 07 Dec 21:17:35 21:21:39 61° 258° (WSW) 21:25:43 437.432
CANX-2 07 Dec 21:22:20 21:23:59 12° 258° (WSW) 21:25:38 2200.000
CUBEBUG 2 07 Dec 21:27:40 21:32:05 41° 259° (WSW) 21:36:32 437.445
PHONESAT 2.4 07 Dec 21:41:54 21:43:33 15° 318° (NW) 21:45:11 2401.200-2431.200
Oscar 11 07 Dec 21:43:48 21:48:09 87° 79° (ENE) 21:52:28 145.826/435.025
SEEDS 07 Dec 21:44:46 21:46:05 11° 258° (WSW) 21:47:23 437.485
DANDE 07 Dec 21:48:37 21:52:03 23° 91° (E) 21:56:17 436.750
COMPASS 1 07 Dec 21:51:07 21:53:27 15° 258° (WSW) 21:55:46 437.405
SRMSAT 07 Dec 21:57:54 22:03:49 76° 201° (SSW) 22:09:46 437.500
DELFI C3 07 Dec 22:02:35 22:06:17 39° 79° (E) 22:09:56 145.870
HO-68 07 Dec 22:06:50 22:09:20 12° 254° (WSW) 22:11:51 435.675
JUGNU 07 Dec 22:07:35 22:11:46 20° 196° (SSW) 22:15:58 437.505
UWE-3 07 Dec 22:07:43 22:11:13 21° 258° (WSW) 22:14:43 435.000/436.395/437.385
UNISAT 6 07 Dec 22:09:11 22:12:17 20° 102° (ESE) 22:15:22 437.425
HUMSAT D 07 Dec 22:22:33 22:26:28 35° 79° (ENE) 22:30:20 437.325/437.525
CUSAT 1 07 Dec 22:28:47 22:33:28 27° 260° (W) 22:39:06 437.405
TIGRISAT 07 Dec 22:37:39 22:41:43 47° 102° (ESE) 22:45:49 435.000
ANTELSAT 07 Dec 22:39:28 22:43:37 55° 102° (ESE) 22:47:48 437.575/2403.000
PRISM 07 Dec 22:43:24 22:45:57 16° 282° (WNW) 22:48:31 437.425
ZACube-1 07 Dec 22:47:03 22:48:38 12° 258° (WSW) 22:50:14 437.345
PCSat 07 Dec 22:51:42 22:57:06 76° 250° (WSW) 23:02:30 145.827
FUNcube-1 07 Dec 22:54:50 22:55:23 10° 258° (WSW) 22:55:56 145.935
DANDE 07 Dec 23:31:43 23:34:36 16° 258° (WSW) 23:37:59 436.750
UNISAT 6 07 Dec 23:46:10 23:48:44 16° 282° (WNW) 23:51:18 437.425
SRMSAT 07 Dec 23:48:04 23:53:08 29° 198° (SSW) 23:58:14 437.500
NANOSAT C BR1 08 Dec 00:00:13 00:04:07 39° 102° (ESE) 00:08:01 145.865
JUGNU 08 Dec 00:00:17 00:01:38 11° 187° (S) 00:02:57 437.505
ESTCUBE 1 08 Dec 00:02:28 00:06:57 74° 77° (ENE) 00:11:23 437.505/2401.250
AISAT 08 Dec 00:02:42 00:06:13 24° 78° (ENE) 00:09:44 437.250
QB50P2 08 Dec 00:07:30 00:11:38 63° 101° (ESE) 00:15:48 145.880/145.840
POLYITAN 1 08 Dec 00:08:01 00:12:07 58° 102° (ESE) 00:16:15 437.675
50 SAT 08 Dec 00:20:24 00:23:26 27° 79° (ENE) 00:26:27 437.505
QB50P1 08 Dec 00:20:24 00:24:36 90° 238° (WSW) 00:28:48 145.935-145.965
DUCHIFAT 1 08 Dec 00:21:15 00:25:24 75° 101° (E) 00:29:34 145.980
JAS-2 08 Dec 00:23:06 00:28:38 62° 282° (WNW) 00:34:55 435.910
CUBEBUG 1 08 Dec 00:23:22 00:27:41 77° 78° (ENE) 00:32:01 437.445
VELOX 1 08 Dec 00:38:35 00:42:58 74° 79° (E) 00:47:21 145.980
POPSAT HIP 1 08 Dec 00:42:19 00:46:17 42° 282° (WNW) 00:50:15 437.405
DX 1 08 Dec 00:46:25 00:50:29 40° 78° (ENE) 00:54:32 434.975-435.025
UKube-1 08 Dec 00:50:22 00:54:09 31° 78° (ENE) 00:57:56 .
GONETS M04 08 Dec 00:55:13 01:03:54 64° 93° (E) 01:12:28
SPROUT 08 Dec 00:58:48 01:03:06 86° 81° (E) 01:07:24 437.525
BUGSAT 1 08 Dec 01:11:12 01:15:15 69° 282° (WNW) 01:19:17 437.445
Cosmos 2499 08 Dec 01:14:50 01:22:49 81° 274° (W) 01:31:24 435.465 / 435.565
AO-85 08 Dec 01:17:25 01:22:39 58° 291° (WNW) 01:27:39 145.980
ISS 08 Dec 01:29:00 01:32:02 35° 55° (NE) 01:35:04 145.825
SRMSAT 08 Dec 01:39:59 01:42:57 14° 191° (S) 01:45:56 437.500
AISAT 08 Dec 01:40:00 01:42:25 15° 258° (WSW) 01:44:49 437.250
Oscar 19 08 Dec 02:09:28 02:14:40 88° 282° (WNW) 02:19:53 437.125/150
TISAT 1 08 Dec 02:14:20 02:18:33 82° 257° (WSW) 02:22:47 437.305
Gurwin Techsat 1B 08 Dec 02:20:02 02:25:10 51° 103° (ESE) 02:30:18 435.225
UKube-1 08 Dec 02:29:17 02:29:55 10° 257° (WSW) 02:30:32 .
O/OREOS (USA 219) 08 Dec 02:30:33 02:31:25 10° 75° (ENE) 02:32:17 437.305
ITAMSAT 1 08 Dec 02:44:32 02:47:01 14° 103° (ESE) 02:49:31 435.822/435.867
GONETS M04 08 Dec 02:56:02 03:00:17 14° 273° (W) 03:04:32
AUBIESAT-1 08 Dec 02:58:21 03:01:48 36° 74° (ENE) 03:05:29 437.475
SWISSCUBE 08 Dec 02:59:35 03:04:16 54° 77° (ENE) 03:08:54 437.505
BEESAT 3 08 Dec 03:02:34 03:04:00 12° 112° (ESE) 03:05:26 437.485
BEESAT 08 Dec 03:03:26 03:08:05 52° 78° (ENE) 03:12:43 436.000
M-CUBED/EXP-1 PRIME 08 Dec 03:12:00 03:15:38 86° 76° (ENE) 03:19:35 437.505
ITUPSAT 1 08 Dec 03:32:13 03:36:59 66° 257° (WSW) 03:41:44 437.325
BEESAT 2 08 Dec 03:35:29 03:37:08 12° 112° (ESE) 03:38:47 435.950
JUGNU 08 Dec 03:38:06 03:41:49 17° 166° (SSE) 03:45:33 437.505
MOZHAYETS 4 08 Dec 03:53:15 03:57:33 38° 78° (ENE) 04:01:47
O/OREOS (USA 219) 08 Dec 04:06:37 04:10:32 30° 256° (WSW) 04:14:29 437.305
AO-7 08 Dec 04:06:57 04:15:17 71° 106° (ESE) 04:23:35 29.400- 29.500
KKS-1 08 Dec 04:10:40 04:13:58 20° 78° (ENE) 04:17:16 437.445
ITAMSAT 1 08 Dec 04:21:31 04:26:12 36° 283° (WNW) 04:30:54 435.822/435.867
BEESAT 3 08 Dec 04:38:23 04:41:21 21° 292° (WNW) 04:44:20 437.485
BEESAT 2 08 Dec 05:11:41 05:14:39 21° 292° (WNW) 05:17:38 435.950
SRMSAT 08 Dec 05:20:49 05:23:36 13° 170° (S) 05:26:24 437.500
GOMX 1 08 Dec 05:21:55 05:23:30 11° 101° (E) 05:25:04 467.674
JUGNU 08 Dec 05:25:45 05:31:15 39° 160° (SSE) 05:36:46 437.505
HORYU 2 08 Dec 05:36:39 05:40:40 35° 103° (ESE) 05:44:40 437.375
CUBESAT XI-V 08 Dec 05:37:49 05:42:26 84° 80° (E) 05:47:01 437.345
STARS 08 Dec 05:46:31 05:50:44 45° 258° (WSW) 05:54:57 437.465
KKS-1 08 Dec 05:47:20 05:50:15 17° 258° (WSW) 05:53:12 437.445
BRITE-PL 08 Dec 05:51:50 05:57:32 87° 101° (E) 06:03:10 437.365/2234.400
AO-7 08 Dec 06:03:46 06:07:35 14° 287° (WNW) 06:11:26 29.400- 29.500
RS-15 08 Dec 06:08:42 06:19:26 53° 110° (ESE) 06:30:37 29.354- 29.394
SO-50 08 Dec 06:09:00 06:11:49 17° 68° (ENE) 06:14:39 436.795
CUTE-I 08 Dec 06:10:23 06:14:20 22° 103° (ESE) 06:18:18 437.470
AIST 2 08 Dec 06:18:36 06:21:35 20° 112° (ESE) 06:24:34 435.215
NOAA 15 08 Dec 06:25:43 06:30:36 38° 103° (ESE) 06:35:31 137.62
Cubesat XI-IV 08 Dec 06:35:54 06:40:55 43° 103° (ESE) 06:45:57 437.490
NOAA 18 08 Dec 06:36:04 06:40:27 25° 103° (ESE) 06:44:50 137.9125
STRAND 1 08 Dec 06:52:09 06:53:04 10° 77° (ENE) 06:53:57 437.568
Cosmos 2504 08 Dec 06:52:20 06:55:17 12° 85° (E) 06:58:11 435.465 / 435.565
YUBILEINY 08 Dec 06:55:00 07:03:17 45° 87° (E) 07:11:33 435.215
Cosmos 2491 08 Dec 06:55:55 07:04:26 53° 93° (E) 07:12:52 435.465 / 435.565
GOMX 1 08 Dec 06:56:13 07:01:21 45° 282° (WNW) 07:06:17 467.674
DOVE 4 08 Dec 06:56:31 07:01:28 62° 102° (ESE) 07:06:08 437.250
LilacSat-2 08 Dec 07:00:09 07:03:52 65° 281° (W) 07:07:37 437.200
SRMSAT 08 Dec 07:08:27 07:13:28 27° 162° (SSE) 07:18:29 437.500
JUGNU 08 Dec 07:14:23 07:20:21 77° 339° (NNW) 07:26:20 437.505
CUTE 1.7 + AOD 2 08 Dec 07:33:58 07:36:17 14° 102° (ESE) 07:38:36 437.475
SO-50 08 Dec 07:48:38 07:52:00 21° 248° (WSW) 07:55:25 436.795
CUTE-I 08 Dec 07:49:55 07:54:06 24° 283° (WNW) 07:58:19 437.470
CANX-2 08 Dec 07:50:55 07:54:41 31° 102° (ESE) 07:58:29 2200.000
AIST 2 08 Dec 07:57:32 07:59:47 15° 292° (WNW) 08:02:03 435.215
CINEMA 3 08 Dec 08:00:07 08:04:32 72° 102° (ESE) 08:08:48 145.822/145.860
HO-68 08 Dec 08:06:33 08:13:33 56° 104° (ESE) 08:20:32 435.675
CUBEBUG 2 08 Dec 08:06:36 08:08:08 12° 102° (ESE) 08:09:40 437.445
NOAA 15 08 Dec 08:07:38 08:10:06 13° 283° (WNW) 08:12:35 137.62
SEEDS 08 Dec 08:12:00 08:15:44 31° 101° (ESE) 08:19:30 437.485
NOAA 18 08 Dec 08:16:38 08:20:50 23° 283° (WNW) 08:25:02 137.9125
COMPASS 1 08 Dec 08:18:50 08:22:09 23° 102° (ESE) 08:25:30 437.405
Cubesat XI-IV 08 Dec 08:19:02 08:20:42 11° 283° (WNW) 08:22:23 437.490
RS-15 08 Dec 08:22:33 08:31:29 27° 293° (WNW) 08:40:50 29.354- 29.394
STRAND 1 08 Dec 08:27:03 08:31:57 44° 257° (WSW) 08:36:50 437.568
AIST 1 08 Dec 08:36:49 08:40:39 30° 266° (W) 08:44:29
Cosmos 2504 08 Dec 08:40:23 08:48:31 65° 268° (W) 08:56:05 435.465 / 435.565
UWE-3 08 Dec 08:42:49 08:46:06 23° 102° (ESE) 08:49:23 435.000/436.395/437.385
YUBILEINY 08 Dec 08:53:14 08:59:40 23° 267° (W) 09:06:11 435.215
Cosmos 2491 08 Dec 08:55:09 09:00:51 19° 273° (W) 09:06:34 435.465 / 435.565
SRMSAT 08 Dec 08:56:51 09:02:51 70° 159° (SSE) 09:08:50 437.500
PHONESAT 2.4 08 Dec 08:59:01 09:01:28 36° 223° (SW) 09:03:57 2401.200-2431.200
JUGNU 08 Dec 09:04:24 09:09:31 29° 342° (NNW) 09:14:40 437.505
CUTE 1.7 + AOD 2 08 Dec 09:08:35 09:11:50 22° 281° (WNW) 09:15:08 437.475
PRISM 08 Dec 09:10:38 09:13:38 20° 78° (ENE) 09:16:37 437.425
ZACube-1 08 Dec 09:18:27 09:22:19 40° 102° (ESE) 09:26:13 437.345
AAUSAT CUBESAT 2 08 Dec 09:20:58 09:25:02 54° 282° (WNW) 09:29:08 437.432
FUNcube-1 08 Dec 09:24:49 09:28:45 45° 102° (ESE) 09:32:43 145.935
CUSAT 1 08 Dec 09:28:20 09:33:10 73° 97° (E) 09:36:49 437.405
CUBEBUG 2 08 Dec 09:41:08 09:44:30 24° 282° (WNW) 09:47:52 437.445
PCSat 08 Dec 09:46:02 09:50:09 22° 110° (ESE) 09:54:15 145.827
Oscar 11 08 Dec 09:52:26 09:56:41 70° 282° (WNW) 10:01:00 145.826/435.025
COMPASS 1 08 Dec 09:55:29 09:57:26 13° 281° (WNW) 09:59:24 437.405
HO-68 08 Dec 09:57:03 10:00:55 15° 285° (WNW) 10:04:47 435.675
DELFI C3 08 Dec 10:00:57 10:04:40 38° 102° (ESE) 10:08:24 145.870
UWE-3 08 Dec 10:20:37 10:22:19 12° 282° (WNW) 10:24:00 435.000/436.395/437.385
UNISAT 6 08 Dec 10:21:18 10:25:31 33° 78° (ENE) 10:29:43 437.425
HUMSAT D 08 Dec 10:27:06 10:30:55 39° 101° (ESE) 10:34:47 437.325/437.525
DANDE 08 Dec 10:33:11 10:39:54 76° 274° (W) 10:44:54 436.750
SRMSAT 08 Dec 10:46:26 10:52:05 43° 340° (NNW) 10:57:44 437.500
PRISM 08 Dec 10:46:32 10:48:39 14° 258° (WSW) 10:50:47 437.425
TIGRISAT 08 Dec 10:50:04 10:54:46 77° 79° (ENE) 10:59:28 435.000
ANTELSAT 08 Dec 10:52:08 10:56:50 88° 84° (E) 11:01:32 437.575/2403.000
JUGNU 08 Dec 10:56:08 10:59:10 14° 349° (N) 11:02:11 437.505
PCSat 08 Dec 11:28:59 11:33:16 24° 290° (WNW) 11:37:34 145.827
GONETS M04 08 Dec 11:37:27 11:40:53 13° 87° (E) 11:44:19
Cosmos 2499 08 Dec 11:38:01 11:40:58 12° 85° (E) 11:43:50 435.465 / 435.565
AO-85 08 Dec 11:54:23 11:54:33 10° 69° (ENE) 11:54:43 145.980
JAS-2 08 Dec 11:56:02 12:03:25 75° 78° (ENE) 12:09:56 435.910
UNISAT 6 08 Dec 12:00:10 12:01:55 12° 258° (WSW) 12:03:42 437.425
NANOSAT C BR1 08 Dec 12:05:43 12:09:50 48° 78° (ENE) 12:13:56 145.865
50 SAT 08 Dec 12:07:55 12:10:20 17° 102° (ESE) 12:12:47 437.505
QB50P2 08 Dec 12:13:40 12:17:57 79° 77° (ENE) 12:22:13 145.880/145.840
AISAT 08 Dec 12:13:45 12:17:46 34° 102° (ESE) 12:21:48 437.250
POLYITAN 1 08 Dec 12:14:07 12:18:25 74° 78° (ENE) 12:22:41 437.675
ESTCUBE 1 08 Dec 12:16:23 12:20:53 70° 282° (WNW) 12:25:25 437.505/2401.250
QB50P1 08 Dec 12:26:25 12:30:41 73° 258° (WSW) 12:34:56 145.935-145.965
DUCHIFAT 1 08 Dec 12:26:33 12:30:49 90° 255° (WSW) 12:35:04 145.980
CUBEBUG 1 08 Dec 12:33:19 12:37:42 76° 282° (WNW) 12:42:06 437.445
SRMSAT 08 Dec 12:37:38 12:41:39 18° 345° (NNW) 12:45:40 437.500
POPSAT HIP 1 08 Dec 12:48:31 12:52:25 35° 258° (WSW) 12:56:19 437.405
VELOX 1 08 Dec 12:50:03 12:54:28 75° 283° (WNW) 12:58:54 145.980
DX 1 08 Dec 12:55:45 13:00:02 56° 102° (ESE) 13:04:19 434.975-435.025
UKube-1 08 Dec 12:58:29 13:02:32 40° 102° (ESE) 13:06:36 .
ISS 08 Dec 13:03:31 13:06:05 21° 126° (SE) 13:08:37 145.825
SPROUT 08 Dec 13:06:03 13:10:17 74° 282° (WNW) 13:14:32 437.525
Oscar 19 08 Dec 13:06:41 13:09:21 14° 77° (ENE) 13:12:01 437.125/150
BUGSAT 1 08 Dec 13:14:04 13:18:11 63° 258° (WSW) 13:22:21 437.445
Cosmos 2499 08 Dec 13:26:11 13:33:55 61° 267° (W) 13:41:07 435.465 / 435.565
GONETS M04 08 Dec 13:28:37 13:37:16 70° 267° (W) 13:46:03
AO-85 08 Dec 13:31:22 13:34:38 25° 247° (WSW) 13:38:02 145.980
50 SAT 08 Dec 13:42:03 13:43:22 12° 281° (WNW) 13:44:41 437.505
JAS-2 08 Dec 13:46:49 13:47:41 10° 253° (WSW) 13:48:33 435.910
TISAT 1 08 Dec 14:19:33 14:23:41 68° 282° (WNW) 14:27:49 437.305
ITUPSAT 1 08 Dec 14:19:41 14:21:35 12° 103° (ESE) 14:23:30 437.325
SRMSAT 08 Dec 14:30:46 14:31:45 10° 355° (N) 14:32:45 437.500
JUGNU 08 Dec 14:36:51 14:39:29 13° 10° (N) 14:42:06 437.505
O/OREOS (USA 219) 08 Dec 14:39:13 14:42:31 19° 105° (ESE) 14:45:47 437.305
ISS 08 Dec 14:41:24 14:42:23 11° 306° (NW) 14:43:20 145.825
Oscar 19 08 Dec 14:43:50 14:48:24 33° 257° (WSW) 14:52:58 437.125/150
AO-7 08 Dec 14:46:12 14:49:22 13° 72° (ENE) 14:52:32 29.400- 29.500
